Regional Weather Roundup
Issued by NWS Little Rock, AR

Home | Current Version | Previous Version | Graphics & Text | Print | Product List | Glossary On
Versions: 1 2 3 4 5 6 7 8 9 10 11 12 13 14 15 16 17 18 19 20 21 22 23 24 25 26 27 28 29 30 31 32 33 34 35 36 37 38 39 40 41 42 43 44 45 46 47 48 49 50
415
ASUS44 KLZK 231805
RWRLZK

WEATHER ROUNDUP FOR ARKANSAS
NATIONAL WEATHER SERVICE LITTLE ROCK AR
1200 PM CST MON JAN 23 2017

NOTE: "FAIR" INDICATES FEW OR NO CLOUDS BELOW 12,000 FEET WITH NO
SIGNIFICANT WEATHER AND/OR OBSTRUCTIONS TO VISIBILITY.

ARZ001-003-010-029-231900-
NORTHWEST ARKANSAS

CITY           SKY/WX    TMP DP  RH WIND       PRES   REMARKS
FAYETTEVILLE   SUNNY     48  37  65 NW7       29.91F
6HR MIN TEMP:  36; 6HR MAX TEMP:  48;

FORT SMITH     SUNNY     48  35  60 W7        29.93F
6HR MIN TEMP:  35; 6HR MAX TEMP:  48;

HARRISON       MOSUNNY   46  37  71 NW8       29.87F
6HR MIN TEMP:  36; 6HR MAX TEMP:  46;

BENTONVILLE    MOSUNNY  N/A N/A N/A NW8       29.92S
ROGERS         MOSUNNY   45  36  70 W5        29.92R
6HR MIN TEMP:  36; 6HR MAX TEMP:  46;

SILOAM SPGS    SUNNY     45  36  70 NE5       29.92F
6HR MIN TEMP:  36; 6HR MAX TEMP:  45;

HIGHFILL       MOSUNNY   46  37  71 W7        29.91S
6HR MIN TEMP:  37; 6HR MAX TEMP:  46;

SPRINGDALE     SUNNY     46  36  66 NW6       29.92F
$$

ARZ004-005-016-231900-
NORTH CENTRAL ARKANSAS

CITY           SKY/WX    TMP DP  RH WIND       PRES   REMARKS
BATESVILLE     PTSUNNY   48  36  61 NW10G17   29.86F
6HR MIN TEMP:  43; 6HR MAX TEMP:  48;

FLIPPIN        PTSUNNY   46  34  61 N9        29.85F
6HR MIN TEMP:  39; 6HR MAX TEMP:  46;

MTN HOME       MOSUNNY   47  36  65 VRB6      29.85F
6HR MIN TEMP:  38; 6HR MAX TEMP:  47;

$$

ARZ040-041-231900-
WEST CENTRAL ARKANSAS

CITY           SKY/WX    TMP DP  RH WIND       PRES   REMARKS
MENA           SUNNY     55  34  44 N5        29.90F
MOUNT IDA      SUNNY     53  34  48 VRB6      29.87F
6HR MIN TEMP:  37; 6HR MAX TEMP:  53;

$$

ARZ009-017-025-026-028-231900-
NORTHEAST ARKANSAS

CITY           SKY/WX    TMP DP  RH WIND       PRES   REMARKS
CORNING        MOCLDY    50  37  62 N13       29.83F
JONESBORO      MOSUNNY   50  37  61 N13G21    29.82F
6HR MIN TEMP:  42; 6HR MAX TEMP:  50;

NEWPORT        SUNNY     51  37  58 NW15      29.84F
6HR MIN TEMP:  43; 6HR MAX TEMP:  51;

WALNUT RIDGE   MOSUNNY   52  36  54 NW16      29.83F
6HR MIN TEMP:  43; 6HR MAX TEMP:  52;

BLYTHEVILLE    CLOUDY    49  40  71 N15       29.82F
6HR MIN TEMP:  41; 6HR MAX TEMP:  49;

NW BLYTHEVILLE PTSUNNY   48  37  66 N9G17     29.81F
$$

ARZ022-023-033-042-044-231900-
CENTRAL ARKANSAS

CITY           SKY/WX    TMP DP  RH WIND       PRES   REMARKS
LITTLE ROCK    MOSUNNY   52  37  56 NW9       29.88S
6HR MIN TEMP:  39; 6HR MAX TEMP:  53;

N LITTLE ROCK    N/A     50  40  67 N7        29.89S
6HR MIN TEMP:  40; 6HR MAX TEMP:  50;

JACKSONVILLE   SUNNY     52  39  62 NW12      29.87S
6HR MIN TEMP:  42; 6HR MAX TEMP:  52;

SEARCY         MOSUNNY   51  39  63 N10       29.87F
6HR MIN TEMP:  43; 6HR MAX TEMP:  51;

HOT SPRINGS    SUNNY     53  37  54 VRB6      29.88F
6HR MIN TEMP:  38; 6HR MAX TEMP:  53;

RUSSELLVILLE   SUNNY     50  36  58 VRB3      29.89F
6HR MIN TEMP:  35; 6HR MAX TEMP:  50;

CLINTON        FAIR      52  37  58 W8        29.88S
$$

ARZ036-231900-
EAST ARKANSAS

CITY           SKY/WX    TMP DP  RH WIND       PRES   REMARKS
WEST MEMPHIS   CLOUDY    47  39  74 N8        29.82F
6HR MIN TEMP:  42; 6HR MAX TEMP:  48;

$$

ARZ050-053-066-070-073-231900-
SOUTHWEST ARKANSAS

CITY           SKY/WX    TMP DP  RH WIND       PRES   REMARKS
ARKADELPHIA    FAIR      52  37  56 N3        29.90F
6HR MIN TEMP:  39; 6HR MAX TEMP:  53;

CAMDEN         SUNNY     57  36  44 N3        29.90F
TEXARKANA      SUNNY     52  36  54 N5        29.92F
6HR MIN TEMP:  38; 6HR MAX TEMP:  52;

EL DORADO        N/A    N/A N/A N/A MISG      29.90F
DE QUEEN       SUNNY     58  35  42 VRB3      29.89F
6HR MIN TEMP:  33; 6HR MAX TEMP:  58;

$$

ARZ056-057-069-231900-
SOUTHEAST ARKANSAS

CITY           SKY/WX    TMP DP  RH WIND       PRES   REMARKS
PINE BLUFF     SUNNY     49  38  65 N9        29.88F
6HR MIN TEMP:  42; 6HR MAX TEMP:  50;

STUTTGART      MOSUNNY   50  34  53 NW12      29.87F
6HR MIN TEMP:  43; 6HR MAX TEMP:  50;

MONTICELLO     MOSUNNY   50  38  63 NW9       29.88F
6HR MIN TEMP:  44; 6HR MAX TEMP:  51;


$$






USA.gov is the U.S. government's official web portal to all federal, state and local government web resources and services.